Flag for U.S.A. Weather past 2 weeks in Corpus Christi, Texas, U.S.A.

Now
69 °F

Thunderstorms. Mostly cloudy.


Feels Like: 69 °F
Forecast: 78 / 87 °F
Wind: 12 mph from Northeast

Location: Corpus Christi International Airport

Current Time: May 29, 2015 at 8:19:56 AM

Latest Report: May 29, 2015 at 7:51 AM


Visibility: 10 mi

Pressure: 30.03 "Hg

Humidity: 84%

Dew point: 64 °F

Location of Corpus ChristiLocation

Historic Weather in Corpus Christi — Graph

°F

Corpus Christi temperature yesterday

Maximum temperature yesterday: 87 °F (at 12:51 PM)
Minimum temperature yesterday: 79 °F (at 4:51 AM)
Average temperature yesterday: 83 °F

Past Weeks' High & Low Weather Summary

 TemperatureHumidityPressure
High88 °F (May 27, 3:51 PM)97% (May 22, 3:51 AM)30.07 "Hg (May 22, 3:51 AM)
Low67 °F (May 29, 5:51 AM)61% (May 24, 2:51 PM)29.74 "Hg (May 25, 6:51 PM)
Average80 °F82%29.94 "Hg
* Reported May 14 6:51 AM — May 29 6:51 AM, Corpus Christi, Weather by CustomWeather, © 2015

Note: Actual official high and low records may vary slightly from our data, if they occured in-between our weather recording intervals... More about our weather records

Advertising

Corpus Christi weather history for previous 24 hours

 ConditionsComfort  
Time TempWeatherWind HumidityBarometerVisibility
6:51 AM
Fri, May 29
70 °FLight rain. Mostly cloudy.17 mph79%30.02 "Hg10 mi
5:51 AM67 °FThunderstorms. Overcast.15 mph93%30.01 "Hg8 mi
4:51 AM72 °FStrong thunderstorms. Mostly cloudy.41 mph73%29.98 "Hg7 mi
3:51 AM78 °FOvercast.5 mph90%29.95 "Hg10 mi
2:51 AM78 °FOvercast.8 mph90%29.92 "Hg10 mi
1:51 AM78 °FMostly cloudy.9 mph87%29.94 "Hg10 mi
12:51 AM79 °FOvercast.12 mph84%29.96 "Hg10 mi
11:51 PM
Thu, May 28
80 °FOvercast.13 mph81%29.96 "Hg10 mi
10:51 PM80 °FOvercast.14 mph85%29.95 "Hg10 mi
9:51 PM80 °FPassing clouds.12 mph85%29.93 "Hg10 mi
8:51 PM81 °FPartly sunny.13 mph79%29.93 "Hg10 mi
7:51 PM82 °FOvercast.17 mph77%29.91 "Hg10 mi
6:51 PM84 °FScattered clouds.21 mph72%29.90 "Hg10 mi
5:51 PM86 °FScattered clouds.18 mph67%29.91 "Hg10 mi
4:51 PM87 °FPartly sunny.22 mph65%29.94 "Hg10 mi
3:51 PM87 °FBroken clouds.22 mph65%29.96 "Hg10 mi
2:51 PM85 °FBroken clouds.15 mph70%29.98 "Hg10 mi
1:51 PM87 °FBroken clouds.18 mph67%30.01 "Hg10 mi
12:51 PM87 °FBroken clouds.18 mph65%30.02 "Hg10 mi
11:51 AM86 °FBroken clouds.16 mph67%30.03 "Hg10 mi
10:51 AM86 °FBroken clouds.16 mph67%30.03 "Hg10 mi
9:51 AM84 °FBroken clouds.17 mph72%30.02 "Hg10 mi
8:51 AM83 °FBroken clouds.20 mph77%30.01 "Hg10 mi
Weather by CustomWeather, © 2015

See weather overviewHow to use our weather pages